Location: Songkhla
(7.2000°N, 100.6000°E)
Time: 07:08:54
(UTC+07:00)

Meteor 2-5 Rocket - Pass Details

Date: 16 April 2026
Orbit: 832 x 911 km, 81.2° (Epoch: 17 May)

Event Time Altitude Azimuth Distance (km) Brightness Sun altitude
Rises 19:43:05 0° 357° (N) 3,386 7.1 -19.5°
Reaches altitude 10° 19:45:28 10° 358° (N) 2,461 6.3 -20.1°
Maximum altitude 19:51:03 81° 85° (E) 871 3.6 -21.4°
Enters shadow 19:56:08 13° 172° (S) 2,276 5.7 -22.7°
